Flag for U.S.A. Weather past 2 weeks in Seattle, Washington, U.S.A.

Now
54 °F

Broken clouds.


Feels Like: 54 °F
Forecast: 50 / 67 °F
Wind: 3 mph from Southeast

Location: Seattle Boeing Field

Current Time: Sep 5, 2015 at 9:36:29 AM

Latest Report: Sep 5, 2015 at 8:53 AM


Visibility: 10 mi

Pressure: 30.09 "Hg

Humidity: 77%

Dew point: 47 °F

Location of SeattleLocation

Historic Weather in Seattle — Graph

°F

Seattle temperature yesterday

Maximum temperature yesterday: 66 °F (at 4:53 PM)
Minimum temperature yesterday: 54 °F (at 6:53 AM)
Average temperature yesterday: 59 °F

Past Weeks' High & Low Weather Summary

 TemperatureHumidityPressure
High87 °F (Aug 27, 4:53 PM)100% (Aug 30, 3:53 AM)30.12 "Hg (Aug 30, 3:53 AM)
Low49 °F (Sep 5, 5:53 AM)22% (Aug 27, 4:53 PM)29.50 "Hg (Aug 29, 4:53 AM)
Average66 °F59%29.95 "Hg
* Reported Aug 21 7:53 AM — Sep 5 7:53 AM, Seattle, Weather by CustomWeather, © 2015

Note: Actual official high and low records may vary slightly from our data, if they occured in-between our weather recording intervals... More about our weather records

Advertising

Seattle weather history for previous 24 hours

 ConditionsComfort  
Time TempWeatherWind HumidityBarometerVisibility
7:53 AM
Sat, Sep 5
52 °FScattered clouds.3 mph80%30.08 "Hg10 mi
6:53 AM50 °FPassing clouds.6 mph83%30.06 "Hg10 mi
5:53 AM49 °FClear.7 mph84%30.04 "Hg10 mi
4:53 AM50 °FClear.6 mph83%30.04 "Hg10 mi
3:53 AM50 °FClear.3 mph86%30.03 "Hg10 mi
2:53 AM52 °FClear.3 mph83%30.02 "Hg10 mi
1:53 AM54 °FPassing clouds.5 mph80%30.02 "Hg10 mi
12:53 AM54 °FClear.No wind74%30.02 "Hg10 mi
11:53 PM
Fri, Sep 4
55 °FClear.No wind72%30.01 "Hg10 mi
10:53 PM58 °FClear.No wind67%30.00 "Hg10 mi
9:53 PM59 °FPassing clouds.No wind69%30.00 "Hg10 mi
8:53 PM61 °FPassing clouds.3 mph60%29.99 "Hg10 mi
7:53 PM62 °FPartly sunny.No wind58%29.99 "Hg10 mi
6:53 PM65 °FPartly sunny.No wind52%29.98 "Hg10 mi
5:53 PM64 °FBroken clouds.7 mph54%29.98 "Hg10 mi
4:53 PM66 °FScattered clouds.5 mph49%29.99 "Hg10 mi
3:53 PM63 °FBroken clouds.7 mph56%29.99 "Hg10 mi
2:53 PM63 °FMore clouds than sun.3 mph54%29.99 "Hg10 mi
1:53 PM61 °FBroken clouds.7 mph60%29.99 "Hg10 mi
12:53 PM60 °FMostly cloudy.8 mph65%30.01 "Hg10 mi
11:53 AM58 °FMostly cloudy.6 mph67%30.02 "Hg10 mi
10:53 AM58 °FOvercast.3 mph67%30.02 "Hg10 mi
9:53 AM57 °FOvercast.No wind69%30.02 "Hg10 mi
Weather by CustomWeather, © 2015

See weather overviewHow to use our weather pages